Time,TemperatureF,DewpointF,PressureIn,WindDirection,WindDirectionDegrees,WindSpeedMPH,WindSpeedGustMPH,Humidity,HourlyPrecipIn,Conditions,Clouds,dailyrainin,SoftwareType,DateUTC
2013-03-04 00:00:00,37.1,33.2,30.25,NE,45,0.4,2.9,86,0.00,,,0.00,WUHU216HW,2013-03-04 08:00:00,
2013-03-04 00:05:00,37.3,33.4,30.25,NE,45,1.1,1.8,86,0.00,,,0.00,WUHU216HW,2013-03-04 08:05:00,
2013-03-04 00:10:00,37.1,33.2,30.25,NNE,23,1.1,1.8,86,0.00,,,0.00,WUHU216HW,2013-03-04 08:10:00,
2013-03-04 00:15:00,37.1,33.2,30.24,NNE,23,0.0,1.8,86,0.00,,,0.00,WUHU216HW,2013-03-04 08:15:00,
2013-03-04 00:20:00,36.9,32.8,30.24,NNE,23,0.0,0.4,85,0.00,,,0.00,WUHU216HW,2013-03-04 08:20:00,
2013-03-04 00:25:00,36.5,32.4,30.24,NNE,23,0.0,0.0,85,0.00,,,0.00,WUHU216HW,2013-03-04 08:25:00,
2013-03-04 00:30:00,36.4,32.5,30.24,NNE,23,0.0,0.4,86,0.00,,,0.00,WUHU216HW,2013-03-04 08:30:00,
2013-03-04 00:35:00,36.0,32.1,30.24,NNE,23,0.0,0.4,86,0.00,,,0.00,WUHU216HW,2013-03-04 08:35:00,
2013-03-04 00:40:00,35.6,31.5,30.24,NNE,23,0.0,0.0,85,0.00,,,0.00,WUHU216HW,2013-03-04 08:40:00,
2013-03-04 00:45:00,35.5,31.3,30.24,NNE,23,0.2,0.2,85,0.00,,,0.00,WUHU216HW,2013-03-04 08:45:00,
2013-03-04 00:50:00,35.5,31.6,30.24,North,0,0.2,0.7,86,0.00,,,0.00,WUHU216HW,2013-03-04 08:50:00,
2013-03-04 00:55:00,35.5,31.6,30.24,North,0,0.0,0.7,86,0.00,,,0.00,WUHU216HW,2013-03-04 08:55:00,
2013-03-04 01:00:00,35.3,31.4,30.24,North,0,0.0,0.0,86,0.00,,,0.00,WUHU216HW,2013-03-04 09:00:00,
2013-03-04 01:05:00,35.3,31.4,30.24,North,0,0.0,0.0,86,0.00,,,0.00,WUHU216HW,2013-03-04 09:05:00,
2013-03-04 01:10:00,35.3,31.4,30.23,North,0,0.0,0.0,86,0.00,,,0.00,WUHU216HW,2013-03-04 09:10:00,
2013-03-04 01:15:00,34.9,31.1,30.23,North,0,0.2,0.2,86,0.00,,,0.00,WUHU216HW,2013-03-04 09:15:00,
2013-03-04 01:20:00,34.9,31.1,30.23,North,0,0.4,0.4,86,0.00,,,0.00,WUHU216HW,2013-03-04 09:20:00,
2013-03-04 01:25:00,34.7,30.9,30.23,North,0,0.2,0.4,86,0.00,,,0.00,WUHU216HW,2013-03-04 09:25:00,
2013-03-04 01:30:00,34.6,30.7,30.23,North,0,0.2,0.7,86,0.00,,,0.00,WUHU216HW,2013-03-04 09:30:00,
2013-03-04 01:35:00,34.6,30.7,30.23,North,0,0.0,0.7,86,0.00,,,0.00,WUHU216HW,2013-03-04 09:35:00,
2013-03-04 01:40:00,34.4,30.5,30.23,North,0,0.0,0.2,86,0.00,,,0.00,WUHU216HW,2013-03-04 09:40:00,
2013-03-04 01:45:00,34.4,30.5,30.23,North,0,0.0,0.0,86,0.00,,,0.00,WUHU216HW,2013-03-04 09:45:00,
2013-03-04 01:50:00,34.2,30.3,30.23,North,0,0.0,0.0,86,0.00,,,0.00,WUHU216HW,2013-03-04 09:50:00,
2013-03-04 01:55:00,34.2,30.3,30.24,North,0,0.0,0.0,86,0.00,,,0.00,WUHU216HW,2013-03-04 09:55:00,
2013-03-04 02:00:00,34.0,30.2,30.23,North,0,0.0,0.0,86,0.00,,,0.00,WUHU216HW,2013-03-04 10:00:00,
2013-03-04 02:05:00,33.8,30.2,30.23,North,0,0.7,0.7,87,0.00,,,0.00,WUHU216HW,2013-03-04 10:05:00,
2013-03-04 02:10:00,33.7,30.4,30.23,North,0,0.7,0.7,88,0.00,,,0.00,WUHU216HW,2013-03-04 10:10:00,
2013-03-04 02:15:00,33.7,30.4,30.23,North,0,1.1,1.1,88,0.00,,,0.00,WUHU216HW,2013-03-04 10:15:00,
2013-03-04 02:20:00,33.5,30.5,30.23,North,0,0.9,1.1,89,0.00,,,0.00,WUHU216HW,2013-03-04 10:20:00,
2013-03-04 02:25:00,33.5,30.5,30.23,North,0,1.1,1.3,89,0.00,,,0.00,WUHU216HW,2013-03-04 10:25:00,
2013-03-04 02:30:00,33.5,30.5,30.23,North,0,0.0,1.3,89,0.00,,,0.00,WUHU216HW,2013-03-04 10:30:00,
2013-03-04 02:35:00,33.5,30.5,30.23,North,0,0.2,0.9,89,0.00,,,0.00,WUHU216HW,2013-03-04 10:35:00,
2013-03-04 02:40:00,33.5,30.5,30.23,North,0,1.1,1.1,89,0.00,,,0.00,WUHU216HW,2013-03-04 10:40:00,
2013-03-04 02:45:00,33.5,30.5,30.22,North,0,0.2,1.1,89,0.00,,,0.00,WUHU216HW,2013-03-04 10:45:00,
2013-03-04 02:50:00,33.3,30.3,30.22,North,0,0.4,1.1,89,0.00,,,0.00,WUHU216HW,2013-03-04 10:50:00,
2013-03-04 02:55:00,33.1,30.3,30.22,North,0,0.4,0.9,89,0.00,,,0.00,WUHU216HW,2013-03-04 10:55:00,
2013-03-04 03:00:00,33.3,30.3,30.22,North,0,0.4,0.9,89,0.00,,,0.00,WUHU216HW,2013-03-04 11:00:00,
2013-03-04 03:05:00,33.3,30.3,30.22,North,0,0.7,1.8,89,0.00,,,0.00,WUHU216HW,2013-03-04 11:05:00,
2013-03-04 03:10:00,33.3,30.3,30.22,North,0,1.1,1.8,89,0.00,,,0.00,WUHU216HW,2013-03-04 11:10:00,
2013-03-04 03:15:00,33.3,30.3,30.22,North,0,1.3,1.3,89,0.00,,,0.00,WUHU216HW,2013-03-04 11:15:00,
2013-03-04 03:20:00,33.3,30.3,30.21,North,0,2.0,2.2,89,0.00,,,0.00,WUHU216HW,2013-03-04 11:20:00,
2013-03-04 03:25:00,33.3,30.7,30.21,North,0,2.0,2.5,90,0.00,,,0.00,WUHU216HW,2013-03-04 11:25:00,
2013-03-04 03:30:00,33.3,30.7,30.21,NNE,23,2.7,3.6,90,0.00,,,0.00,WUHU216HW,2013-03-04 11:30:00,
2013-03-04 03:35:00,33.3,30.7,30.21,NE,45,1.8,3.6,90,0.00,,,0.00,WUHU216HW,2013-03-04 11:35:00,
2013-03-04 03:40:00,33.5,30.8,30.21,North,0,1.8,2.7,90,0.00,,,0.00,WUHU216HW,2013-03-04 11:40:00,
2013-03-04 03:45:00,33.5,30.8,30.21,North,0,1.8,2.5,90,0.00,,,0.00,WUHU216HW,2013-03-04 11:45:00,
2013-03-04 03:50:00,33.5,30.8,30.21,NNE,23,2.0,2.5,90,0.00,,,0.00,WUHU216HW,2013-03-04 11:50:00,
2013-03-04 03:55:00,33.5,30.8,30.21,NNE,23,2.0,2.7,90,0.00,,,0.00,WUHU216HW,2013-03-04 11:55:00,
2013-03-04 04:00:00,33.3,30.7,30.21,North,0,2.0,2.7,90,0.00,,,0.00,WUHU216HW,2013-03-04 12:00:00,
2013-03-04 04:05:00,33.3,30.7,30.21,North,0,1.6,2.5,90,0.00,,,0.00,WUHU216HW,2013-03-04 12:05:00,
2013-03-04 04:10:00,33.1,30.5,30.21,North,0,0.9,1.8,90,0.00,,,0.00,WUHU216HW,2013-03-04 12:10:00,
2013-03-04 04:15:00,33.1,30.5,30.21,North,0,0.9,2.5,90,0.00,,,0.00,WUHU216HW,2013-03-04 12:15:00,
2013-03-04 04:20:00,32.9,30.3,30.21,North,0,1.1,2.5,90,0.00,,,0.00,WUHU216HW,2013-03-04 12:20:00,
2013-03-04 04:25:00,32.8,30.2,30.21,North,0,1.6,2.0,90,0.00,,,0.00,WUHU216HW,2013-03-04 12:25:00,
2013-03-04 04:30:00,32.8,30.2,30.21,North,0,1.6,2.5,90,0.00,,,0.00,WUHU216HW,2013-03-04 12:30:00,
2013-03-04 04:35:00,32.6,30.0,30.21,North,0,1.1,2.5,90,0.00,,,0.00,WUHU216HW,2013-03-04 12:35:00,
2013-03-04 04:40:00,32.4,29.9,30.20,NNE,23,1.3,2.2,90,0.00,,,0.00,WUHU216HW,2013-03-04 12:40:00,
2013-03-04 04:45:00,32.4,29.9,30.21,North,0,1.1,1.6,90,0.00,,,0.00,WUHU216HW,2013-03-04 12:45:00,
2013-03-04 04:51:00,32.2,29.7,30.20,North,0,1.6,1.6,90,0.00,,,0.00,WUHU216HW,2013-03-04 12:51:00,
2013-03-04 04:56:00,32.2,29.7,30.20,North,0,1.8,2.2,90,0.00,,,0.00,WUHU216HW,2013-03-04 12:56:00,
2013-03-04 05:01:00,32.2,29.7,30.20,North,0,2.2,2.2,90,0.00,,,0.00,WUHU216HW,2013-03-04 13:01:00,
2013-03-04 05:06:00,32.2,29.7,30.20,North,0,1.3,2.2,90,0.00,,,0.00,WUHU216HW,2013-03-04 13:06:00,
2013-03-04 05:11:00,32.2,30.0,30.20,North,0,1.1,1.8,91,0.00,,,0.00,WUHU216HW,2013-03-04 13:11:00,
2013-03-04 05:16:00,32.2,30.0,30.20,NNE,23,1.1,1.6,91,0.00,,,0.00,WUHU216HW,2013-03-04 13:16:00,
2013-03-04 05:21:00,32.2,30.0,30.20,North,0,1.1,2.7,91,0.00,,,0.00,WUHU216HW,2013-03-04 13:21:00,
2013-03-04 05:26:00,32.2,30.0,30.20,North,0,1.6,2.7,91,0.00,,,0.00,WUHU216HW,2013-03-04 13:26:00,
2013-03-04 05:31:00,32.0,29.8,30.20,North,0,1.1,1.6,91,0.00,,,0.00,WUHU216HW,2013-03-04 13:31:00,
2013-03-04 05:36:00,32.0,29.8,30.20,North,0,1.1,1.8,91,0.00,,,0.00,WUHU216HW,2013-03-04 13:36:00,
2013-03-04 05:41:00,32.0,29.8,30.20,North,0,1.6,1.8,91,0.00,,,0.00,WUHU216HW,2013-03-04 13:41:00,
2013-03-04 05:46:00,32.0,29.5,30.19,North,0,1.1,2.0,90,0.00,,,0.00,WUHU216HW,2013-03-04 13:46:00,
2013-03-04 05:51:00,32.0,29.5,30.19,NNE,23,2.5,2.5,90,0.00,,,0.00,WUHU216HW,2013-03-04 13:51:00,
2013-03-04 05:56:00,32.0,29.8,30.19,NNE,23,3.4,3.4,91,0.00,,,0.00,WUHU216HW,2013-03-04 13:56:00,
2013-03-04 06:01:00,32.0,30.1,30.19,North,0,1.1,3.4,92,0.00,,,0.00,WUHU216HW,2013-03-04 14:01:00,
2013-03-04 06:06:00,32.0,29.8,30.19,NNE,23,1.6,3.4,91,0.00,,,0.00,WUHU216HW,2013-03-04 14:06:00,
2013-03-04 06:11:00,32.0,29.8,30.19,NNE,23,1.8,2.0,91,0.00,,,0.00,WUHU216HW,2013-03-04 14:11:00,
2013-03-04 06:16:00,32.0,29.8,30.19,North,0,0.7,2.0,91,0.00,,,0.00,WUHU216HW,2013-03-04 14:16:00,
2013-03-04 06:21:00,32.0,29.8,30.19,North,0,0.4,2.0,91,0.00,,,0.00,WUHU216HW,2013-03-04 14:21:00,
2013-03-04 06:26:00,32.0,29.5,30.19,North,0,1.1,2.0,90,0.00,,,0.00,WUHU216HW,2013-03-04 14:26:00,
2013-03-04 06:30:00,32.0,29.5,30.18,North,0,1.1,2.0,90,0.00,,,0.00,WUHU216HW,2013-03-04 14:30:00,
2013-03-04 06:36:00,31.9,29.3,30.19,North,0,0.9,1.8,90,0.00,,,0.00,WUHU216HW,2013-03-04 14:36:00,
2013-03-04 06:41:00,31.7,29.2,30.18,North,0,1.1,1.8,90,0.00,,,0.00,WUHU216HW,2013-03-04 14:41:00,
2013-03-04 06:46:00,31.5,29.0,30.19,North,0,1.6,2.0,90,0.00,,,0.00,WUHU216HW,2013-03-04 14:46:00,
2013-03-04 06:51:00,31.5,29.3,30.18,NNE,23,2.2,2.2,91,0.00,,,0.00,WUHU216HW,2013-03-04 14:51:00,
2013-03-04 06:56:00,31.5,29.3,30.18,NNE,23,1.8,2.5,91,0.00,,,0.00,WUHU216HW,2013-03-04 14:56:00,
2013-03-04 07:01:00,31.5,29.3,30.18,North,0,1.8,2.5,91,0.00,,,0.00,WUHU216HW,2013-03-04 15:01:00,
2013-03-04 07:06:00,31.5,29.3,30.18,North,0,0.4,2.2,91,0.00,,,0.00,WUHU216HW,2013-03-04 15:06:00,
2013-03-04 07:11:00,31.5,29.3,30.18,North,0,1.1,1.1,91,0.00,,,0.00,WUHU216HW,2013-03-04 15:11:00,
2013-03-04 07:16:00,31.3,29.1,30.18,North,0,0.9,1.1,91,0.00,,,0.00,WUHU216HW,2013-03-04 15:16:00,
2013-03-04 07:21:00,31.5,29.3,30.18,North,0,1.3,1.3,91,0.00,,,0.00,WUHU216HW,2013-03-04 15:21:00,
2013-03-04 07:26:00,31.5,29.3,30.18,North,0,1.1,1.3,91,0.00,,,0.00,WUHU216HW,2013-03-04 15:26:00,
2013-03-04 07:31:00,31.7,29.4,30.18,North,0,0.7,1.6,91,0.00,,,0.00,WUHU216HW,2013-03-04 15:31:00,
2013-03-04 07:36:00,31.9,29.6,30.18,North,0,1.6,1.6,91,0.00,,,0.00,WUHU216HW,2013-03-04 15:36:00,
2013-03-04 07:41:00,32.0,30.1,30.18,North,0,2.0,2.0,92,0.00,,,0.00,WUHU216HW,2013-03-04 15:41:00,
2013-03-04 07:46:00,32.4,30.3,30.18,NE,45,2.9,2.9,92,0.00,,,0.00,WUHU216HW,2013-03-04 15:46:00,
2013-03-04 07:51:00,32.8,30.7,30.18,North,0,1.6,3.4,92,0.00,,,0.00,WUHU216HW,2013-03-04 15:51:00,
2013-03-04 07:56:00,32.9,30.9,30.18,NNE,23,1.1,3.4,92,0.00,,,0.00,WUHU216HW,2013-03-04 15:56:00,
2013-03-04 08:01:00,33.3,31.1,30.18,North,0,2.5,2.9,92,0.00,,,0.00,WUHU216HW,2013-03-04 16:01:00,
2013-03-04 08:06:00,33.5,31.1,30.18,NNE,23,2.5,2.5,91,0.00,,,0.00,WUHU216HW,2013-03-04 16:06:00,
2013-03-04 08:11:00,33.8,31.1,30.18,East,90,0.9,2.9,90,0.00,,,0.00,WUHU216HW,2013-03-04 16:11:00,
2013-03-04 08:16:00,34.2,31.2,30.18,NNW,338,1.6,2.9,89,0.00,,,0.00,WUHU216HW,2013-03-04 16:16:00,
2013-03-04 08:21:00,34.6,31.6,30.18,North,0,0.2,3.1,89,0.00,,,0.00,WUHU216HW,2013-03-04 16:21:00,
2013-03-04 08:26:00,34.7,31.8,30.18,NNW,338,0.4,3.1,89,0.00,,,0.00,WUHU216HW,2013-03-04 16:26:00,
2013-03-04 08:31:00,35.1,31.9,30.18,North,0,2.0,2.0,88,0.00,,,0.00,WUHU216HW,2013-03-04 16:31:00,
2013-03-04 08:36:00,35.3,31.7,30.18,North,0,1.1,2.7,87,0.00,,,0.00,WUHU216HW,2013-03-04 16:36:00,
2013-03-04 08:41:00,35.3,31.7,30.18,North,0,0.7,2.7,87,0.00,,,0.00,WUHU216HW,2013-03-04 16:41:00,
2013-03-04 08:46:00,35.5,31.6,30.18,North,0,1.1,2.5,86,0.00,,,0.00,WUHU216HW,2013-03-04 16:46:00,
2013-03-04 08:51:00,35.8,32.2,30.18,NNW,338,2.5,4.0,87,0.00,,,0.00,WUHU216HW,2013-03-04 16:51:00,
2013-03-04 08:56:00,36.2,32.3,30.17,North,0,0.7,5.6,86,0.00,,,0.00,WUHU216HW,2013-03-04 16:56:00,
2013-03-04 09:01:00,36.4,32.5,30.17,NNE,23,3.6,5.6,86,0.00,,,0.00,WUHU216HW,2013-03-04 17:01:00,
2013-03-04 09:06:00,37.1,32.9,30.17,North,0,4.0,4.0,85,0.00,,,0.00,WUHU216HW,2013-03-04 17:06:00,
2013-03-04 09:11:00,37.1,32.9,30.17,NNE,23,2.2,4.0,85,0.00,,,0.00,WUHU216HW,2013-03-04 17:11:00,
2013-03-04 09:16:00,37.4,33.0,30.16,North,0,2.5,3.4,84,0.00,,,0.00,WUHU216HW,2013-03-04 17:16:00,
2013-03-04 09:21:00,37.6,33.2,30.17,NNE,23,2.5,3.4,84,0.01,,,0.00,WUHU216HW,2013-03-04 17:21:00,
2013-03-04 09:26:00,37.8,33.4,30.16,North,0,1.8,3.4,84,0.01,,,0.00,WUHU216HW,2013-03-04 17:26:00,
2013-03-04 09:31:00,37.8,33.4,30.17,NNE,23,0.7,2.9,84,0.01,,,0.00,WUHU216HW,2013-03-04 17:31:00,
2013-03-04 09:36:00,37.8,33.1,30.16,NNW,338,2.5,3.8,83,0.01,,,0.00,WUHU216HW,2013-03-04 17:36:00,
2013-03-04 09:41:00,38.0,32.9,30.16,North,0,3.8,5.4,82,0.01,,,0.00,WUHU216HW,2013-03-04 17:41:00,
2013-03-04 09:46:00,38.2,33.1,30.16,NE,45,1.8,5.4,82,0.01,,,0.00,WUHU216HW,2013-03-04 17:46:00,
2013-03-04 09:51:00,38.5,33.9,30.16,NNW,338,1.3,4.3,83,0.01,,,0.00,WUHU216HW,2013-03-04 17:51:00,
2013-03-04 09:56:00,39.2,34.2,30.16,ESE,113,0.9,3.1,82,0.01,,,0.00,WUHU216HW,2013-03-04 17:56:00,
2013-03-04 10:01:00,39.4,33.9,30.16,North,0,1.8,4.7,80,0.01,,,0.00,WUHU216HW,2013-03-04 18:01:00,
2013-03-04 10:06:00,39.6,33.7,30.15,NNW,338,3.4,4.7,79,0.01,,,0.00,WUHU216HW,2013-03-04 18:06:00,
2013-03-04 10:11:00,39.6,33.7,30.15,North,0,1.1,4.5,79,0.01,,,0.00,WUHU216HW,2013-03-04 18:11:00,
2013-03-04 10:16:00,39.6,33.7,30.15,NNE,23,2.2,4.5,79,0.00,,,0.00,WUHU216HW,2013-03-04 18:16:00,
2013-03-04 10:21:00,40.0,33.7,30.15,NNE,23,3.8,3.8,78,0.00,,,0.00,WUHU216HW,2013-03-04 18:21:00,
2013-03-04 10:26:00,40.0,32.9,30.15,NNE,23,5.4,5.4,76,0.00,,,0.00,WUHU216HW,2013-03-04 18:26:00,
2013-03-04 10:29:00,40.1,33.1,30.15,North,0,2.2,5.6,76,0.00,,,0.00,WUHU216HW,2013-03-04 18:29:00,
2013-03-04 10:30:00,40.1,33.1,30.15,North,0,2.2,5.6,76,0.00,,,0.00,WUHU216HW,2013-03-04 18:30:00,
2013-03-04 10:31:00,40.1,33.5,30.15,North,0,1.6,5.6,77,0.00,,,0.00,WUHU216HW,2013-03-04 18:31:00,
2013-03-04 10:36:00,40.7,33.3,30.15,NNE,23,4.3,5.6,75,0.00,,,0.00,WUHU216HW,2013-03-04 18:36:00,
2013-03-04 10:40:00,41.0,33.3,30.15,ENE,68,1.8,6.7,74,0.00,,,0.00,WUHU216HW,2013-03-04 18:40:00,
2013-03-04 10:45:00,41.4,33.7,30.15,NNW,338,1.8,6.7,74,0.00,,,0.00,WUHU216HW,2013-03-04 18:45:00,
2013-03-04 10:51:00,41.9,33.9,30.14,North,0,1.1,6.7,73,0.00,,,0.00,WUHU216HW,2013-03-04 18:51:00,
2013-03-04 10:56:00,42.7,34.9,30.14,NE,45,4.3,5.4,74,0.00,,,0.00,WUHU216HW,2013-03-04 18:56:00,
2013-03-04 11:01:00,43.2,35.2,30.14,NNW,338,2.9,5.4,73,0.00,,,0.00,WUHU216HW,2013-03-04 19:01:00,
2013-03-04 11:06:00,43.4,34.7,30.14,NE,45,3.6,6.5,71,0.00,,,0.00,WUHU216HW,2013-03-04 19:06:00,
2013-03-04 11:11:00,43.9,35.5,30.14,NNE,23,3.6,6.5,72,0.00,,,0.00,WUHU216HW,2013-03-04 19:11:00,
2013-03-04 11:16:00,44.3,35.5,30.13,North,0,4.0,6.3,71,0.00,,,0.00,WUHU216HW,2013-03-04 19:16:00,
2013-03-04 11:21:00,44.5,35.7,30.13,NNE,23,2.2,6.3,71,0.00,,,0.00,WUHU216HW,2013-03-04 19:21:00,
2013-03-04 11:26:00,45.0,33.9,30.13,North,0,2.9,3.6,65,0.00,,,0.00,WUHU216HW,2013-03-04 19:26:00,
2013-03-04 11:31:00,45.4,35.4,30.12,NE,45,3.8,5.6,68,0.00,,,0.00,WUHU216HW,2013-03-04 19:31:00,
2013-03-04 11:36:00,45.5,34.0,30.12,NNE,23,4.7,6.3,64,0.00,,,0.00,WUHU216HW,2013-03-04 19:36:00,
2013-03-04 11:41:00,45.7,34.6,30.11,NNE,23,1.1,6.3,65,0.00,,,0.00,WUHU216HW,2013-03-04 19:41:00,
2013-03-04 11:46:00,46.3,34.8,30.11,North,0,5.8,6.0,64,0.00,,,0.00,WUHU216HW,2013-03-04 19:46:00,
2013-03-04 11:51:00,46.4,34.5,30.11,NNW,338,4.7,6.0,63,0.00,,,0.00,WUHU216HW,2013-03-04 19:51:00,
2013-03-04 11:56:00,46.6,34.7,30.11,NNE,23,2.9,6.0,63,0.00,,,0.00,WUHU216HW,2013-03-04 19:56:00,
2013-03-04 12:01:00,47.2,34.8,30.10,NNE,23,6.3,6.3,62,0.00,,,0.00,WUHU216HW,2013-03-04 20:01:00,
2013-03-04 12:06:00,47.5,34.4,30.10,NNW,338,5.4,6.3,60,0.00,,,0.00,WUHU216HW,2013-03-04 20:06:00,
2013-03-04 12:11:00,47.9,34.7,30.09,North,0,5.8,6.7,60,0.00,,,0.00,WUHU216HW,2013-03-04 20:11:00,
2013-03-04 12:16:00,47.9,34.7,30.09,North,0,5.1,6.7,60,0.00,,,0.00,WUHU216HW,2013-03-04 20:16:00,
2013-03-04 12:21:00,48.4,34.3,30.09,North,0,4.3,5.4,58,0.00,,,0.00,WUHU216HW,2013-03-04 20:21:00,
2013-03-04 12:26:00,49.0,36.1,30.09,NE,45,2.5,5.1,61,0.00,,,0.00,WUHU216HW,2013-03-04 20:26:00,
2013-03-04 12:31:00,49.3,36.1,30.09,NNE,23,4.9,4.9,60,0.00,,,0.00,WUHU216HW,2013-03-04 20:31:00,
2013-03-04 12:36:00,49.5,33.5,30.09,NE,45,2.2,4.9,54,0.00,,,0.00,WUHU216HW,2013-03-04 20:36:00,
2013-03-04 12:41:00,49.7,34.1,30.08,North,0,2.2,4.9,55,0.00,,,0.00,WUHU216HW,2013-03-04 20:41:00,
2013-03-04 12:46:00,49.7,32.8,30.08,NW,315,2.0,4.0,52,0.00,,,0.00,WUHU216HW,2013-03-04 20:46:00,
2013-03-04 12:51:00,49.9,33.4,30.07,NNW,338,1.8,4.7,53,0.00,,,0.00,WUHU216HW,2013-03-04 20:51:00,
2013-03-04 12:56:00,50.0,33.6,30.07,NW,315,3.4,4.7,53,0.00,,,0.00,WUHU216HW,2013-03-04 20:56:00,
2013-03-04 13:01:00,50.4,34.8,30.07,North,0,1.1,3.4,55,0.00,,,0.00,WUHU216HW,2013-03-04 21:01:00,
2013-03-04 13:06:00,50.6,33.1,30.06,NNE,23,3.6,6.3,51,0.00,,,0.00,WUHU216HW,2013-03-04 21:06:00,
2013-03-04 13:11:00,50.4,31.4,30.06,NNW,338,3.4,6.3,48,0.00,,,0.00,WUHU216HW,2013-03-04 21:11:00,
2013-03-04 13:16:00,50.4,32.6,30.05,ESE,113,2.2,6.9,50,0.00,,,0.00,WUHU216HW,2013-03-04 21:16:00,
2013-03-04 13:21:00,50.6,33.1,30.05,ENE,68,0.4,6.9,51,0.00,,,0.00,WUHU216HW,2013-03-04 21:21:00,
2013-03-04 13:26:00,50.9,33.9,30.05,North,0,1.1,5.6,52,0.00,,,0.00,WUHU216HW,2013-03-04 21:26:00,
2013-03-04 13:31:00,51.1,34.1,30.04,NE,45,3.1,3.1,52,0.00,,,0.00,WUHU216HW,2013-03-04 21:31:00,
2013-03-04 13:36:00,51.3,32.8,30.04,NNE,23,5.4,5.4,49,0.00,,,0.00,WUHU216HW,2013-03-04 21:36:00,
2013-03-04 13:41:00,51.5,33.5,30.04,NNE,23,2.5,5.4,50,0.00,,,0.00,WUHU216HW,2013-03-04 21:41:00,
2013-03-04 13:46:00,51.7,34.1,30.04,North,0,2.0,5.1,51,0.00,,,0.00,WUHU216HW,2013-03-04 21:46:00,
2013-03-04 13:51:00,51.8,33.8,30.04,NNE,23,3.4,5.1,50,0.00,,,0.00,WUHU216HW,2013-03-04 21:51:00,
2013-03-04 13:56:00,52.0,33.5,30.04,North,0,4.0,4.0,49,0.00,,,0.00,WUHU216HW,2013-03-04 21:56:00,
2013-03-04 14:01:00,52.2,34.2,30.04,North,0,3.1,4.0,50,0.00,,,0.00,WUHU216HW,2013-03-04 22:01:00,
2013-03-04 14:06:00,52.2,32.0,30.03,NNE,23,4.7,5.1,46,0.00,,,0.00,WUHU216HW,2013-03-04 22:06:00,
2013-03-04 14:11:00,52.6,33.9,30.03,NE,45,1.3,5.1,49,0.00,,,0.00,WUHU216HW,2013-03-04 22:11:00,
2013-03-04 14:16:00,52.7,34.1,30.03,SE,135,1.8,3.4,49,0.00,,,0.00,WUHU216HW,2013-03-04 22:16:00,
2013-03-04 14:21:00,52.9,33.7,30.02,NNE,23,2.5,3.1,48,0.00,,,0.00,WUHU216HW,2013-03-04 22:21:00,
2013-03-04 14:26:00,52.9,33.1,30.02,North,0,3.6,4.3,47,0.00,,,0.00,WUHU216HW,2013-03-04 22:26:00,
2013-03-04 14:31:00,52.9,33.1,30.02,NNW,338,3.8,4.3,47,0.00,,,0.00,WUHU216HW,2013-03-04 22:31:00,
2013-03-04 14:36:00,52.9,33.1,30.02,NE,45,1.8,5.8,47,0.00,,,0.00,WUHU216HW,2013-03-04 22:36:00,
2013-03-04 14:41:00,52.9,33.1,30.02,NNE,23,2.9,5.8,47,0.00,,,0.00,WUHU216HW,2013-03-04 22:41:00,
2013-03-04 14:46:00,53.3,34.0,30.02,ESE,113,1.8,4.7,48,0.00,,,0.00,WUHU216HW,2013-03-04 22:46:00,
2013-03-04 14:51:00,53.3,33.0,30.01,North,0,2.0,5.1,46,0.00,,,0.00,WUHU216HW,2013-03-04 22:51:00,
2013-03-04 14:56:00,53.5,33.7,30.01,NE,45,0.7,5.1,47,0.00,,,0.00,WUHU216HW,2013-03-04 22:56:00,
2013-03-04 15:01:00,53.6,32.1,30.00,NNE,23,2.5,6.9,44,0.00,,,0.00,WUHU216HW,2013-03-04 23:01:00,
2013-03-04 15:06:00,53.6,33.2,30.00,NNW,338,0.9,6.9,46,0.00,,,0.00,WUHU216HW,2013-03-04 23:06:00,
2013-03-04 15:11:00,53.8,33.4,30.00,North,0,2.0,4.3,46,0.00,,,0.00,WUHU216HW,2013-03-04 23:11:00,
2013-03-04 15:16:00,54.2,33.1,30.00,NE,45,1.8,4.3,45,0.00,,,0.00,WUHU216HW,2013-03-04 23:16:00,
2013-03-04 15:21:00,54.4,33.3,29.99,NNE,23,2.7,4.0,45,0.00,,,0.00,WUHU216HW,2013-03-04 23:21:00,
2013-03-04 15:26:00,54.4,32.8,29.99,SE,135,3.1,3.1,44,0.00,,,0.00,WUHU216HW,2013-03-04 23:26:00,
2013-03-04 15:31:00,54.2,33.1,29.98,NNE,23,3.1,3.1,45,0.00,,,0.00,WUHU216HW,2013-03-04 23:31:00,
2013-03-04 15:36:00,54.2,32.0,29.98,NE,45,4.9,4.9,43,0.00,,,0.00,WUHU216HW,2013-03-04 23:36:00,
2013-03-04 15:42:00,54.0,33.0,29.98,NNW,338,4.5,4.9,45,0.00,,,0.00,WUHU216HW,2013-03-04 23:42:00,
2013-03-04 15:47:00,54.0,33.0,29.97,NE,45,2.5,4.9,45,0.00,,,0.00,WUHU216HW,2013-03-04 23:47:00,
2013-03-04 15:51:00,54.2,33.1,29.97,NE,45,1.8,2.5,45,0.00,,,0.00,WUHU216HW,2013-03-04 23:51:00,
2013-03-04 15:56:00,54.2,33.1,29.97,NNE,23,1.1,3.1,45,0.00,,,0.00,WUHU216HW,2013-03-04 23:56:00,
2013-03-04 16:01:00,54.4,33.3,29.97,North,0,0.7,3.1,45,0.00,,,0.00,WUHU216HW,2013-03-05 00:01:00,
2013-03-04 16:07:00,54.4,33.8,29.97,ENE,68,0.4,2.0,46,0.00,,,0.00,WUHU216HW,2013-03-05 00:07:00,
2013-03-04 16:12:00,54.4,33.3,29.96,NNE,23,4.7,4.7,45,0.00,,,0.00,WUHU216HW,2013-03-05 00:12:00,
2013-03-04 16:17:00,54.2,32.6,29.96,NE,45,4.0,4.7,44,0.00,,,0.00,WUHU216HW,2013-03-05 00:17:00,
2013-03-04 16:22:00,54.2,33.1,29.96,NE,45,0.9,4.7,45,0.00,,,0.00,WUHU216HW,2013-03-05 00:22:00,
2013-03-04 16:27:00,54.2,32.6,29.96,North,0,1.1,2.9,44,0.00,,,0.00,WUHU216HW,2013-03-05 00:27:00,
2013-03-04 16:32:00,54.0,33.0,29.96,ESE,113,1.3,2.5,45,0.00,,,0.00,WUHU216HW,2013-03-05 00:32:00,
2013-03-04 16:37:00,54.0,33.6,29.96,NNE,23,1.8,2.5,46,0.00,,,0.00,WUHU216HW,2013-03-05 00:37:00,
2013-03-04 16:42:00,54.2,33.8,29.96,NNE,23,2.5,2.5,46,0.00,,,0.00,WUHU216HW,2013-03-05 00:42:00,
2013-03-04 16:47:00,54.2,33.8,29.95,North,0,1.1,2.5,46,0.00,,,0.00,WUHU216HW,2013-03-05 00:47:00,
2013-03-04 16:52:00,54.4,33.8,29.96,NNW,338,2.9,2.9,46,0.00,,,0.00,WUHU216HW,2013-03-05 00:52:00,
2013-03-04 16:57:00,54.4,33.8,29.96,NNE,23,0.0,2.9,46,0.00,,,0.00,WUHU216HW,2013-03-05 00:57:00,
2013-03-04 17:02:00,54.2,33.8,29.96,NNE,23,1.6,1.6,46,0.00,,,0.00,WUHU216HW,2013-03-05 01:02:00,
2013-03-04 17:07:00,54.4,35.0,29.96,NW,315,0.0,1.6,48,0.00,,,0.00,WUHU216HW,2013-03-05 01:07:00,
2013-03-04 17:12:00,54.5,35.7,29.95,NW,315,0.0,2.7,49,0.00,,,0.00,WUHU216HW,2013-03-05 01:12:00,
2013-03-04 17:17:00,54.4,33.8,29.95,NE,45,0.4,2.7,46,0.00,,,0.00,WUHU216HW,2013-03-05 01:17:00,
2013-03-04 17:22:00,54.4,34.5,29.95,NE,45,0.0,1.1,47,0.00,,,0.00,WUHU216HW,2013-03-05 01:22:00,
2013-03-04 17:27:00,54.4,35.0,29.95,SE,135,0.9,1.1,48,0.00,,,0.00,WUHU216HW,2013-03-05 01:27:00,
2013-03-04 17:32:00,54.2,34.8,29.95,ENE,68,0.9,1.1,48,0.00,,,0.00,WUHU216HW,2013-03-05 01:32:00,
2013-03-04 17:37:00,54.0,34.7,29.95,East,90,0.0,1.6,48,0.00,,,0.00,WUHU216HW,2013-03-05 01:37:00,
2013-03-04 17:42:00,53.6,33.8,29.95,NNE,23,0.7,1.6,47,0.00,,,0.00,WUHU216HW,2013-03-05 01:42:00,
2013-03-04 17:47:00,52.9,33.1,29.95,ENE,68,0.4,0.9,47,0.00,,,0.00,WUHU216HW,2013-03-05 01:47:00,
2013-03-04 17:52:00,52.7,32.9,29.95,East,90,0.4,0.9,47,0.00,,,0.00,WUHU216HW,2013-03-05 01:52:00,
2013-03-04 17:57:00,52.2,32.5,29.95,ESE,113,1.8,1.8,47,0.00,,,0.00,WUHU216HW,2013-03-05 01:57:00,
2013-03-04 18:02:00,52.0,32.9,29.95,East,90,0.0,1.8,48,0.00,,,0.00,WUHU216HW,2013-03-05 02:02:00,
2013-03-04 18:07:00,51.8,32.8,29.95,NE,45,0.4,0.7,48,0.00,,,0.00,WUHU216HW,2013-03-05 02:07:00,
2013-03-04 18:12:00,51.5,32.9,29.95,NNE,23,0.0,0.4,49,0.00,,,0.00,WUHU216HW,2013-03-05 02:12:00,
2013-03-04 18:17:00,51.1,32.7,29.95,NNW,338,0.0,0.4,49,0.00,,,0.00,WUHU216HW,2013-03-05 02:17:00,
2013-03-04 18:22:00,50.8,32.3,29.95,NNW,338,1.3,1.3,49,0.00,,,0.00,WUHU216HW,2013-03-05 02:22:00,
2013-03-04 18:27:00,50.4,31.4,29.94,East,90,0.0,2.0,48,0.00,,,0.00,WUHU216HW,2013-03-05 02:27:00,
2013-03-04 18:32:00,50.0,31.2,29.94,North,0,1.1,2.0,48,0.00,,,0.00,WUHU216HW,2013-03-05 02:32:00,
2013-03-04 18:37:00,49.9,31.0,29.94,NE,45,0.2,1.3,48,0.00,,,0.00,WUHU216HW,2013-03-05 02:37:00,
2013-03-04 18:42:00,49.7,30.8,29.94,East,90,1.6,2.5,48,0.00,,,0.00,WUHU216HW,2013-03-05 02:42:00,
2013-03-04 18:47:00,49.5,31.2,29.94,SW,225,0.9,2.5,49,0.00,,,0.00,WUHU216HW,2013-03-05 02:47:00,
2013-03-04 18:52:00,49.3,31.0,29.94,NNE,23,1.6,1.8,49,0.00,,,0.00,WUHU216HW,2013-03-05 02:52:00,
2013-03-04 18:57:00,49.1,31.3,29.94,NNW,338,0.0,1.6,50,0.00,,,0.00,WUHU216HW,2013-03-05 02:57:00,
2013-03-04 19:02:00,49.0,31.1,29.93,NNE,23,2.7,2.7,50,0.00,,,0.00,WUHU216HW,2013-03-05 03:02:00,
2013-03-04 19:07:00,48.8,31.0,29.93,NE,45,0.0,2.7,50,0.00,,,0.00,WUHU216HW,2013-03-05 03:07:00,
2013-03-04 19:12:00,48.6,30.8,29.93,NNE,23,0.2,2.5,50,0.00,,,0.00,WUHU216HW,2013-03-05 03:12:00,
2013-03-04 19:17:00,48.4,30.6,29.94,North,0,0.7,2.5,50,0.00,,,0.00,WUHU216HW,2013-03-05 03:17:00,
2013-03-04 19:22:00,48.2,30.9,29.94,North,0,0.0,1.3,51,0.00,,,0.00,WUHU216HW,2013-03-05 03:22:00,
2013-03-04 19:27:00,47.9,30.1,29.93,North,0,2.5,2.5,50,0.00,,,0.00,WUHU216HW,2013-03-05 03:27:00,
2013-03-04 19:32:00,47.9,29.5,29.93,North,0,1.6,2.5,49,0.00,,,0.00,WUHU216HW,2013-03-05 03:32:00,
2013-03-04 19:37:00,47.7,30.0,29.93,NNE,23,2.9,2.9,50,0.00,,,0.00,WUHU216HW,2013-03-05 03:37:00,
2013-03-04 19:42:00,47.5,29.3,29.93,NNE,23,1.6,5.4,49,0.00,,,0.00,WUHU216HW,2013-03-05 03:42:00,
2013-03-04 19:47:00,47.5,29.3,29.93,North,0,2.7,5.4,49,0.00,,,0.00,WUHU216HW,2013-03-05 03:47:00,
2013-03-04 19:52:00,47.3,29.1,29.93,East,90,0.9,4.7,49,0.00,,,0.00,WUHU216HW,2013-03-05 03:52:00,
2013-03-04 19:57:00,47.3,29.1,29.93,East,90,1.1,4.0,49,0.00,,,0.00,WUHU216HW,2013-03-05 03:57:00,
2013-03-04 20:02:00,47.2,28.9,29.92,ENE,68,0.9,1.6,49,0.00,,,0.00,WUHU216HW,2013-03-05 04:02:00,
2013-03-04 20:07:00,47.2,28.9,29.92,ESE,113,1.6,1.6,49,0.00,,,0.00,WUHU216HW,2013-03-05 04:07:00,
2013-03-04 20:12:00,47.2,28.9,29.92,ENE,68,0.4,3.4,49,0.00,,,0.00,WUHU216HW,2013-03-05 04:12:00,
2013-03-04 20:18:00,47.0,28.7,29.92,ESE,113,1.1,3.4,49,0.00,,,0.00,WUHU216HW,2013-03-05 04:18:00,
2013-03-04 20:23:00,46.8,29.2,29.91,NNE,23,0.4,3.1,50,0.00,,,0.00,WUHU216HW,2013-03-05 04:23:00,
2013-03-04 20:28:00,46.8,29.2,29.91,NE,45,1.1,3.1,50,0.00,,,0.00,WUHU216HW,2013-03-05 04:28:00,
2013-03-04 20:33:00,46.6,29.0,29.91,NNE,23,1.3,3.4,50,0.00,,,0.00,WUHU216HW,2013-03-05 04:33:00,
2013-03-04 20:38:00,46.4,28.3,29.91,NNW,338,2.7,3.4,49,0.00,,,0.00,WUHU216HW,2013-03-05 04:38:00,
2013-03-04 20:43:00,46.4,28.8,29.91,NNE,23,0.4,2.7,50,0.00,,,0.00,WUHU216HW,2013-03-05 04:43:00,
2013-03-04 20:48:00,46.3,28.6,29.91,NNE,23,1.3,3.6,50,0.00,,,0.00,WUHU216HW,2013-03-05 04:48:00,
2013-03-04 20:53:00,46.1,28.9,29.91,NE,45,0.9,4.3,51,0.00,,,0.00,WUHU216HW,2013-03-05 04:53:00,
2013-03-04 20:58:00,45.7,29.1,29.92,North,0,1.3,4.3,52,0.00,,,0.00,WUHU216HW,2013-03-05 04:58:00,
2013-03-04 21:00:00,45.7,29.5,29.92,North,0,3.4,4.3,53,0.00,,,0.00,WUHU216HW,2013-03-05 05:00:00,
2013-03-04 21:05:00,45.4,29.6,29.91,NNE,23,2.2,3.4,54,0.00,,,0.00,WUHU216HW,2013-03-05 05:05:00,
2013-03-04 21:10:00,45.0,29.8,29.91,North,0,1.8,3.4,55,0.00,,,0.00,WUHU216HW,2013-03-05 05:10:00,
2013-03-04 21:15:00,44.8,29.6,29.91,North,0,2.5,2.9,55,0.00,,,0.00,WUHU216HW,2013-03-05 05:15:00,
2013-03-04 21:20:00,44.6,29.4,29.91,NNE,23,2.2,3.4,55,0.00,,,0.00,WUHU216HW,2013-03-05 05:20:00,
2013-03-04 21:25:00,44.6,29.4,29.91,NNE,23,0.7,3.4,55,0.00,,,0.00,WUHU216HW,2013-03-05 05:25:00,
2013-03-04 21:30:00,44.5,29.3,29.91,NE,45,3.1,3.1,55,0.00,,,0.00,WUHU216HW,2013-03-05 05:30:00,
2013-03-04 21:35:00,44.6,29.0,29.91,NNE,23,0.0,3.1,54,0.00,,,0.00,WUHU216HW,2013-03-05 05:35:00,
2013-03-04 21:40:00,44.8,28.7,29.91,NE,45,0.4,3.4,53,0.00,,,0.00,WUHU216HW,2013-03-05 05:40:00,
2013-03-04 21:45:00,45.2,29.0,29.91,NNE,23,0.4,3.4,53,0.00,,,0.00,WUHU216HW,2013-03-05 05:45:00,
2013-03-04 21:50:00,45.4,29.2,29.91,ENE,68,0.0,1.3,53,0.00,,,0.00,WUHU216HW,2013-03-05 05:50:00,
2013-03-04 21:55:00,45.4,29.2,29.91,ESE,113,1.1,1.6,53,0.00,,,0.00,WUHU216HW,2013-03-05 05:55:00,
2013-03-04 22:00:00,45.4,29.2,29.91,ENE,68,0.4,1.6,53,0.00,,,0.00,WUHU216HW,2013-03-05 06:00:00,
2013-03-04 22:05:00,45.2,28.5,29.91,NNE,23,2.0,2.2,52,0.00,,,0.00,WUHU216HW,2013-03-05 06:05:00,
2013-03-04 22:10:00,45.2,29.0,29.91,NNE,23,2.5,2.5,53,0.00,,,0.00,WUHU216HW,2013-03-05 06:10:00,
2013-03-04 22:15:00,44.8,29.2,29.91,NNE,23,1.8,2.7,54,0.00,,,0.00,WUHU216HW,2013-03-05 06:15:00,
2013-03-04 22:20:00,44.6,29.0,29.90,NNE,23,3.4,3.4,54,0.00,,,0.00,WUHU216HW,2013-03-05 06:20:00,
2013-03-04 22:25:00,44.3,29.1,29.91,North,0,0.9,3.4,55,0.00,,,0.00,WUHU216HW,2013-03-05 06:25:00,
2013-03-04 22:30:00,44.1,29.3,29.90,NNE,23,1.8,2.0,56,0.00,,,0.00,WUHU216HW,2013-03-05 06:30:00,
2013-03-04 22:35:00,43.9,29.2,29.90,NE,45,2.5,2.7,56,0.00,,,0.00,WUHU216HW,2013-03-05 06:35:00,
2013-03-04 22:40:00,43.9,28.7,29.90,NNW,338,0.4,2.7,55,0.00,,,0.00,WUHU216HW,2013-03-05 06:40:00,
2013-03-04 22:45:00,44.3,28.6,29.90,NE,45,2.5,2.5,54,0.00,,,0.00,WUHU216HW,2013-03-05 06:45:00,
2013-03-04 22:50:00,44.5,28.4,29.89,ESE,113,0.7,2.5,53,0.00,,,0.00,WUHU216HW,2013-03-05 06:50:00,
2013-03-04 22:55:00,44.8,28.7,29.89,NE,45,2.5,2.5,53,0.00,,,0.00,WUHU216HW,2013-03-05 06:55:00,
2013-03-04 23:00:00,45.0,28.9,29.89,NE,45,0.4,2.5,53,0.00,,,0.00,WUHU216HW,2013-03-05 07:00:00,
2013-03-04 23:05:00,45.0,28.9,29.89,ENE,68,0.4,1.6,53,0.00,,,0.00,WUHU216HW,2013-03-05 07:05:00,
2013-03-04 23:10:00,45.0,28.9,29.88,NNE,23,0.4,1.1,53,0.00,,,0.00,WUHU216HW,2013-03-05 07:10:00,
2013-03-04 23:15:00,45.0,28.5,29.88,NE,45,3.4,3.4,52,0.00,,,0.00,WUHU216HW,2013-03-05 07:15:00,
2013-03-04 23:20:00,45.0,28.5,29.88,SE,135,1.8,4.0,52,0.00,,,0.00,WUHU216HW,2013-03-05 07:20:00,
2013-03-04 23:25:00,45.2,28.5,29.88,NE,45,0.7,4.0,52,0.00,,,0.00,WUHU216HW,2013-03-05 07:25:00,
2013-03-04 23:30:00,45.2,28.5,29.87,East,90,0.2,1.8,52,0.00,,,0.00,WUHU216HW,2013-03-05 07:30:00,
2013-03-04 23:35:00,45.2,28.1,29.88,ENE,68,0.2,1.8,51,0.00,,,0.00,WUHU216HW,2013-03-05 07:35:00,
2013-03-04 23:40:00,45.2,28.1,29.87,NE,45,0.9,1.3,51,0.00,,,0.00,WUHU216HW,2013-03-05 07:40:00,
2013-03-04 23:45:00,45.2,28.1,29.87,NE,45,0.9,0.9,51,0.00,,,0.00,WUHU216HW,2013-03-05 07:45:00,
2013-03-04 23:50:00,45.4,28.3,29.86,NNE,23,1.3,3.1,51,0.00,,,0.00,WUHU216HW,2013-03-05 07:50:00,
2013-03-04 23:55:00,45.4,28.3,29.87,NNE,23,2.5,3.1,51,0.00,,,0.00,WUHU216HW,2013-03-05 07:55:00,